[[{"header":{"parameterUnit":"m.s-1","parameterCategory":1,"la1":30.2991,"la2":30.254,"lo1":-89.0895,"lo2":-89.0444,"dy":0.0017,"dx":0.0017,"nx":28,"ny":28,"refTime":"2024-08-05T03:00:00:Z","depth":0,"parameterNumber":2,"parameterNumberName":"U-component_of_WINDS"},"data":[0,0,0,0,0,0,0,0,0,0,0,0,0,0,0,0,0,0,0,0,0,0,0,0,0,0,0,0,0,0,0,0,0,0,0,0,0,0,0,0,0,0,0,0,0,0,0,0,0,0,0,0,0,0,0,0,0,0,-1.3274,-1.3274,0,-1.3311,-1.3312,-1.3312,-1.3272,-1.327,-1.3268,-1.3267,-1.3312,-1.3315,-1.3317,0,0,0,0,0,0,0,0,0,0,0,0,0,-1.3175,-1.3177,-1.3274,-1.3274,-1.3275,-1.3311,-1.3312,-1.3312,-1.3272,-1.327,-1.3268,-1.3266,-1.3311,-1.3314,-1.3318,0,0,0,0,0,0,0,0,0,0,0,0,0,-1.3216,-1.3178,-1.3274,-1.3259,-1.3258,-1.3311,-1.3312,-1.3313,-1.3272,-1.327,-1.3268,-1.3265,-1.331,-1.3314,-1.3318,-1.339,0,0,-1.333,-1.3332,0,0,0,0,0,0,0,0,-1.3214,-1.322,-1.3261,-1.326,-1.3259,-1.3284,-1.3294,-1.3339,-1.3273,-1.3267,-1.3267,-1.3264,-1.3305,-1.331,-1.3322,-1.3392,-1.3394,-1.3331,-1.3333,-1.3335,-1.3336,0,0,0,0,0,0,0,-1.3211,-1.3218,-1.3289,-1.3261,-1.326,-1.3253,-1.3256,-1.3302,-1.3299,-1.3267,-1.3264,-1.3269,-1.3304,-1.3318,-1.3323,-1.3395,-1.3331,-1.3334,-1.3337,-1.3338,-1.353,-1.3533,0,0,0,0,0,0,-1.3209,-1.3216,-1.3288,-1.329,-1.323,-1.3257,-1.326,-1.3279,-1.3299,-1.3299,-1.3271,-1.3267,-1.3313,-1.3318,-1.3324,-1.3413,-1.3335,-1.3339,-1.3341,-1.3528,-1.3531,-1.3534,0,0,0,0,0,0,-1.3207,-1.3216,-1.3286,-1.3252,-1.3261,-1.3261,-1.3282,-1.3281,-1.3294,-1.3301,-1.3301,-1.3285,-1.3311,-1.3319,-1.3374,-1.3414,-1.334,-1.3344,-1.3525,-1.3529,-1.3532,-1.3589,0,0,0,0,0,0,-1.3204,-1.3215,-1.3241,-1.3253,-1.3262,-1.3334,-1.3284,-1.3283,-1.3301,-1.3296,-1.3315,-1.3315,-1.331,-1.3369,-1.3378,-1.3418,-1.3347,-1.3521,-1.3526,-1.3531,-1.3584,-1.3595,-1.3604,0,0,0,0,0,-1.3201,-1.3256,-1.3242,-1.3251,-1.3294,-1.3336,-1.3342,-1.3332,-1.3304,-1.3331,-1.3336,-1.3315,-1.3407,-1.3375,-1.3385,-1.3427,-1.3519,-1.3525,-1.3531,-1.3579,-1.3592,-1.3603,0,0,0,0,0,0,-1.325,-1.3257,-1.3242,-1.3302,-1.3319,-1.3329,-1.3363,-1.3346,-1.3372,-1.3367,-1.3356,-1.336,-1.342,-1.3429,-1.3392,-1.3499,-1.3459,-1.3467,-1.3492,-1.3505,-1.3514,-1.3513,-1.335,0,0,0,0,0,-1.3267,-1.3298,-1.3304,-1.3357,-1.3365,-1.3363,-1.3381,-1.3372,-1.3389,-1.3397,-1.3405,-1.3425,-1.3459,-1.3482,-1.3513,-1.3584,-1.359,-1.3618,-1.3628,-1.3636,-1.3645,-1.3687,-1.37,-1.3554,-1.3554,-1.3554,0,0,-1.3305,-1.3312,-1.3333,-1.3367,-1.3378,-1.3414,-1.3369,-1.3408,-1.3435,-1.3403,-1.3457,-1.3464,-1.3486,-1.3551,-1.358,-1.356,-1.3686,-1.3644,-1.365,-1.3654,-1.3694,-1.3708,-1.3721,-1.3558,-1.3557,-1.3557,0,0,-1.3391,-1.3398,-1.3444,-1.3457,-1.3475,-1.3473,-1.3484,-1.3497,-1.3501,-1.3554,-1.3531,-1.3565,-1.3622,-1.364,-1.3656,-1.3751,-1.3734,-1.3761,-1.3815,-1.3856,-1.3868,-1.3878,-1.3915,-1.3928,-1.3769,-1.3769,-1.3769,0,-1.3436,-1.3486,-1.3471,-1.3512,-1.3529,-1.35,-1.3549,-1.3562,-1.359,-1.3604,-1.358,-1.3654,-1.3666,-1.3736,-1.3759,-1.3772,-1.3788,-1.376,-1.3866,-1.3877,-1.3886,-1.3922,-1.3936,-1.3773,-1.3772,-1.3772,-1.3772,0,-1.3542,-1.3578,-1.3613,-1.3639,-1.366,-1.3705,-1.37,-1.3723,-1.3712,-1.3714,-1.3771,-1.3784,-1.3819,-1.3835,-1.3825,-1.3905,-1.3892,-1.3867,-1.3827,-1.3904,-1.3938,-1.3951,-1.3778,-1.3776,-1.3775,-1.3775,0,0,-1.3662,-1.3679,-1.3693,-1.3706,-1.3724,-1.3753,-1.3797,-1.3829,-1.3852,-1.3872,-1.3912,-1.3962,-1.394,-1.3959,-1.3951,-1.3986,-1.4065,-1.3958,-1.3959,-1.3981,-1.4158,-1.4179,-1.4195,-1.4053,-1.4055,-1.4057,-1.4158,0,-1.3752,-1.3827,-1.3815,-1.3889,-1.3924,-1.3897,-1.3937,-1.3954,-1.3957,-1.3989,-1.3993,-1.403,-1.3996,-1.4008,-1.4041,-1.4048,-1.4101,-1.4041,-1.4094,-1.4096,-1.4092,-1.4212,-1.4233,-1.4327,-1.417,-1.4173,-1.4174,0,-1.3866,-1.389,-1.3967,-1.3982,-1.3996,-1.4031,-1.4061,-1.4091,-1.4111,-1.4111,-1.4132,-1.4119,-1.4167,-1.4123,-1.4192,-1.4151,-1.4172,-1.4179,-1.4183,-1.419,-1.4142,-1.4226,-1.4357,-1.4372,-1.4194,-1.4192,-1.4191,0,-1.3951,-1.4001,-1.4055,-1.4066,-1.4084,-1.411,-1.4119,-1.4136,-1.4157,-1.4184,-1.4199,-1.4231,-1.4251,-1.4278,-1.4275,-1.4243,-1.4347,-1.4302,-1.4351,-1.4352,-1.4377,-1.4376,-1.4517,-1.4385,-1.4385,-1.4384,-1.4384,0,-1.4054,-1.4103,-1.4093,-1.4127,-1.4182,-1.4169,-1.4226,-1.4231,-1.4247,-1.4284,-1.4262,-1.4298,-1.429,-1.4326,-1.4324,-1.4384,-1.4392,-1.4396,-1.4396,-1.44,-1.44,-1.4416,-1.4411,-1.4388,-1.4387,-1.4386,-1.4386,0,-1.4159,-1.4153,-1.4211,-1.4222,-1.4226,-1.4267,-1.4278,-1.4312,-1.4312,-1.4359,-1.437,-1.4372,-1.4414,-1.4413,-1.446,-1.4459,-1.4534,-1.4524,-1.4527,-1.4526,-1.4577,-1.4574,-1.4736,-1.4758,-1.4608,-1.461,-1.4611,0,-1.4226,-1.4264,-1.4279,-1.4301,-1.4311,-1.4346,-1.4368,-1.4357,-1.4381,-1.4407,-1.4438,-1.4477,-1.4508,-1.4577,-1.4585,-1.4622,-1.4616,-1.467,-1.4621,-1.4626,-1.4621,-1.462,-1.4626,-1.4681,-1.4682,-1.4683,-1.4685,0,-1.4349,-1.4345,-1.4374,-1.4404,-1.443,-1.4453,-1.4475,-1.4495,-1.4487,-1.4515,-1.4556,-1.458,-1.4629,-1.467,-1.4705,-1.4718,-1.4702,-1.4699,-1.4713,-1.472,-1.4722,-1.4725,-1.4556,-1.4696,-1.4695,-1.4694,-1.4694,-1.4693,-1.444,-1.4473,-1.4489,-1.4524,-1.4539,-1.456,-1.4592,-1.4597,-1.463,-1.4667,-1.4659,-1.4707,-1.4729,-1.4775,-1.4791,-1.483,-1.4812,-1.4831,-1.4837,-1.4843,-1.485,-1.4712,-1.4837,-1.4836,-1.4836,-1.4836,-1.4835,0,-1.4564,-1.4573,-1.4605,-1.4636,-1.4664,-1.4642,-1.4666,-1.4692,-1.4733,-1.4754,-1.4784,-1.4834,-1.4874,-1.4885,-1.4924,-1.4954,-1.4948,-1.4965,-1.4965,-1.4969,-1.4863,-1.4848,-1.4969,-1.4969,-1.4969,-1.4969,-1.4969,-1.4969,-1.4633,-1.4688,-1.4686,-1.475,-1.4759,-1.4804,-1.482,-1.484,-1.4857,-1.4912,-1.4944,-1.495,-1.4968,-1.5009,-1.5046,-1.5048,-1.5066,-1.5087,-1.5087,-1.4989,-1.4975,-1.4963,-1.4949,-1.509,-1.509,-1.519,-1.5191,-1.5191]},{"header":{"parameterUnit":"m.s-1","parameterCategory":1,"la1":30.2991,"la2":30.254,"lo1":-89.0895,"lo2":-89.0444,"dy":0.0017,"dx":0.0017,"nx":28,"ny":28,"refTime":"2024-08-05T03:00:00:Z","depth":0,"parameterNumber":3,"parameterNumberName":"V-component_of_WINDS"},"data":[0,0,0,0,0,0,0,0,0,0,0,0,0,0,0,0,0,0,0,0,0,0,0,0,0,0,0,0,0,0,0,0,0,0,0,0,0,0,0,0,0,0,0,0,0,0,0,0,0,0,0,0,0,0,0,0,0,0,3.2774,3.2775,0,3.2814,3.2815,3.2815,3.2843,3.2843,3.2843,3.2844,3.2882,3.2883,3.2884,0,0,0,0,0,0,0,0,0,0,0,0,0,3.2718,3.2719,3.2774,3.2775,3.2775,3.2814,3.2815,3.2815,3.2843,3.2843,3.2844,3.2844,3.2882,3.2883,3.2884,0,0,0,0,0,0,0,0,0,0,0,0,0,3.2749,3.2719,3.2774,3.2794,3.2796,3.2814,3.2815,3.2816,3.2843,3.2843,3.2844,3.2844,3.2881,3.2883,3.2884,3.2885,0,0,3.2888,3.2888,0,0,0,0,0,0,0,0,3.2747,3.2751,3.2791,3.2793,3.2795,3.2824,3.2809,3.2839,3.2843,3.2825,3.2844,3.2844,3.2862,3.2865,3.2872,3.2887,3.2888,3.2888,3.2888,3.2889,3.2889,0,0,0,0,0,0,0,3.2745,3.2749,3.279,3.2791,3.2794,3.2799,3.2804,3.2815,3.2841,3.2827,3.2829,3.2833,3.2864,3.2871,3.2873,3.2889,3.2888,3.2889,3.2889,3.289,3.2905,3.2904,0,0,0,0,0,0,3.274,3.2747,3.2789,3.2791,3.2771,3.28,3.2806,3.2814,3.2841,3.2846,3.2833,3.2834,3.2868,3.2871,3.2874,3.2876,3.2889,3.289,3.2891,3.2905,3.2904,3.2904,0,0,0,0,0,0,3.2739,3.2744,3.2787,3.277,3.2776,3.2801,3.2811,3.2815,3.2822,3.2846,3.2851,3.2836,3.2869,3.2873,3.2882,3.2878,3.2891,3.2892,3.2905,3.2905,3.2904,3.2881,0,0,0,0,0,0,3.2737,3.2743,3.2745,3.277,3.2777,3.2795,3.2811,3.2816,3.2825,3.2827,3.285,3.2854,3.2869,3.288,3.2883,3.288,3.2893,3.2906,3.2905,3.2904,3.2882,3.2879,3.2877,0,0,0,0,0,3.2735,3.2736,3.2745,3.2749,3.278,3.2795,3.2799,3.2817,3.2824,3.2825,3.284,3.2853,3.2878,3.2881,3.2884,3.2881,3.2906,3.2905,3.2905,3.2883,3.288,3.2877,0,0,0,0,0,0,3.2709,3.274,3.275,3.2759,3.2774,3.28,3.2802,3.2814,3.2827,3.2828,3.285,3.2855,3.2861,3.2872,3.2875,3.2883,3.2893,3.2893,3.2876,3.2873,3.2871,3.2867,3.2894,0,0,0,0,0,3.2705,3.2716,3.2742,3.2748,3.2755,3.2777,3.2784,3.2797,3.2813,3.282,3.2836,3.285,3.2861,3.2868,3.2879,3.2884,3.2888,3.2883,3.2881,3.2879,3.2878,3.288,3.2878,3.2902,3.2902,3.2902,0,0,3.2696,3.2714,3.2719,3.2743,3.2756,3.2766,3.2782,3.2792,3.2799,3.2821,3.283,3.2842,3.286,3.2866,3.287,3.2875,3.2873,3.2878,3.2876,3.2877,3.2879,3.2876,3.2874,3.2901,3.2901,3.2901,0,0,3.2684,3.2699,3.2705,3.2718,3.2738,3.2752,3.2753,3.2777,3.2786,3.2796,3.2812,3.282,3.2839,3.285,3.2858,3.2848,3.286,3.2852,3.2839,3.284,3.2838,3.2837,3.2832,3.283,3.2851,3.2851,3.2851,0,3.267,3.2686,3.2706,3.2715,3.2724,3.2745,3.275,3.2761,3.2783,3.2788,3.2795,3.2818,3.2831,3.284,3.2837,3.2844,3.2844,3.2849,3.2837,3.2836,3.2835,3.283,3.2829,3.285,3.285,3.285,3.285,0,3.2667,3.2677,3.268,3.2701,3.271,3.2717,3.2737,3.2744,3.2755,3.2768,3.2777,3.2794,3.2808,3.2811,3.2823,3.2821,3.2824,3.2833,3.2844,3.2831,3.2827,3.2826,3.2848,3.2848,3.2849,3.2849,0,0,3.2641,3.2672,3.2673,3.2682,3.2704,3.2712,3.2719,3.2734,3.2738,3.2753,3.2758,3.2773,3.2781,3.279,3.2803,3.2804,3.2794,3.2814,3.2814,3.2808,3.2791,3.2782,3.278,3.2802,3.2801,3.2801,3.2789,0,3.2632,3.2646,3.2664,3.2672,3.268,3.27,3.2705,3.2719,3.2731,3.2739,3.2752,3.2762,3.2774,3.2779,3.2781,3.2795,3.279,3.2796,3.2805,3.2805,3.2799,3.2779,3.2771,3.2758,3.2787,3.2787,3.2787,0,3.2624,3.2637,3.2645,3.2665,3.267,3.2675,3.2688,3.2697,3.2712,3.272,3.273,3.2743,3.275,3.276,3.2768,3.2772,3.2776,3.2783,3.2783,3.2784,3.2795,3.2778,3.2755,3.2752,3.2785,3.2785,3.2786,0,3.2602,3.2622,3.2629,3.2636,3.2661,3.2663,3.2673,3.2689,3.2696,3.2707,3.2712,3.2724,3.273,3.2739,3.2754,3.2761,3.276,3.2772,3.2767,3.2766,3.2765,3.2765,3.2741,3.277,3.277,3.277,3.277,0,3.259,3.2594,3.262,3.2624,3.2628,3.2648,3.2652,3.2663,3.2676,3.2682,3.2699,3.2704,3.2725,3.2732,3.2745,3.2749,3.2752,3.2758,3.2761,3.2756,3.2755,3.2758,3.2759,3.2769,3.277,3.277,3.277,0,3.2567,3.2585,3.2593,3.2615,3.262,3.2623,3.264,3.2645,3.2657,3.2664,3.2667,3.2686,3.2695,3.2712,3.2726,3.2734,3.2735,3.2741,3.273,3.2731,3.2724,3.2724,3.2701,3.2699,3.273,3.273,3.2729,0,3.2558,3.2561,3.2583,3.2588,3.2597,3.2606,3.2613,3.2631,3.2638,3.2654,3.2656,3.2666,3.2675,3.2688,3.2703,3.2713,3.2718,3.271,3.272,3.2714,3.2717,3.2716,3.2715,3.2707,3.2707,3.2706,3.2706,0,3.2539,3.2547,3.2557,3.2569,3.2577,3.2587,3.2598,3.2601,3.2622,3.2628,3.2638,3.2644,3.2658,3.2667,3.2679,3.2688,3.27,3.2703,3.2702,3.2696,3.2689,3.2691,3.2722,3.2703,3.2703,3.2704,3.2704,3.2704,3.2522,3.2525,3.254,3.255,3.256,3.257,3.2574,3.2587,3.2595,3.2607,3.2618,3.2626,3.2639,3.2656,3.2664,3.267,3.2675,3.2674,3.2674,3.2673,3.267,3.2689,3.2672,3.2672,3.2672,3.2672,3.2672,0,3.2503,3.2513,3.2522,3.2536,3.2543,3.2554,3.2567,3.2572,3.2578,3.259,3.2598,3.2608,3.2616,3.2631,3.2641,3.2642,3.2648,3.2644,3.2644,3.2645,3.2665,3.2664,3.2639,3.2639,3.2639,3.2639,3.2639,3.2639,3.2493,3.2499,3.2508,3.2518,3.2528,3.2536,3.2542,3.255,3.2559,3.2569,3.2577,3.2586,3.2599,3.2609,3.2617,3.2621,3.2623,3.2617,3.2622,3.2641,3.2644,3.2647,3.2646,3.2618,3.2618,3.2602,3.2602,3.2602]}]]